📊 Raw Sensor Data
Showing records 45701 to 45725 of 85,057 total
| ID | Distance (ft) | Battery V | Battery A | Int Temp (°F) | Int Humid (%) | Ext Temp (°F) | Solar V | RSSI | SNR | Time Stamp |
|---|---|---|---|---|---|---|---|---|---|---|
| 39369 | -- | 4.01 | 0 | 65 | 41 | 71 | 5.10 | -74 | 8 | 05/01/2025 09:15 AM |
| 39368 | -- | 4.01 | 0 | 63 | 41 | 62 | 5.10 | -72 | 8 | 05/01/2025 09:00 AM |
| 39367 | -- | 4.01 | 0 | 62 | 41 | 62 | 5.10 | -74 | 8 | 05/01/2025 08:45 AM |
| 39366 | -- | 4.14 | 5 | 61 | 41 | 65 | 5.10 | -74 | 8 | 05/01/2025 08:30 AM |
| 39365 | -- | 4.11 | 5 | 60 | 41 | 61 | 5.10 | -74 | 8 | 05/01/2025 08:15 AM |
| 39364 | -- | 4.01 | 5 | 58 | 41 | 61 | 5.10 | -72 | 7 | 05/01/2025 08:00 AM |
| 39363 | -- | 4.05 | 5 | 57 | 40 | 58 | 5.10 | -74 | 8 | 05/01/2025 07:45 AM |
| 39362 | -- | 4.08 | 39 | 55 | 40 | 58 | 4.50 | -76 | 8 | 05/01/2025 07:30 AM |
| 39361 | 15.6 | 4.02 | 20 | 53 | 40 | 58 | 4.50 | -73 | 8 | 05/01/2025 07:15 AM |
| 39360 | -- | 4.03 | 5 | 52 | 41 | 57 | 4.50 | -73 | 9 | 05/01/2025 07:00 AM |
| 39359 | -- | 4.01 | 0 | 50 | 41 | 56 | 4.50 | -72 | 9 | 05/01/2025 06:45 AM |
| 39358 | 15.5 | 3.94 | 0 | 49 | 41 | 52 | 4.50 | -73 | 8 | 05/01/2025 06:30 AM |
| 39357 | 15.5 | 3.98 | -10 | 49 | 42 | 51 | 4.50 | -74 | 8 | 05/01/2025 06:15 AM |
| 39356 | 15.5 | 3.93 | -5 | 49 | 41 | 50 | 1.10 | -74 | 8 | 05/01/2025 06:00 AM |
| 39355 | 15.5 | 3.93 | -5 | 49 | 41 | 50 | 0.00 | -73 | 8 | 05/01/2025 05:45 AM |
| 39354 | -- | 3.99 | -5 | 49 | 41 | 51 | 0.00 | -74 | 8 | 05/01/2025 05:31 AM |
| 39353 | -- | 3.93 | -5 | 49 | 41 | 51 | 0.10 | -74 | 8 | 05/01/2025 05:15 AM |
| 39352 | 15.5 | 3.93 | -5 | 49 | 41 | 51 | 0.00 | -75 | 8 | 05/01/2025 05:00 AM |
| 39351 | 15.6 | 3.99 | -5 | 49 | 41 | 51 | 0.00 | -75 | 8 | 05/01/2025 04:45 AM |
| 39350 | 15.6 | 3.94 | -5 | 48 | 42 | 50 | 0.00 | -76 | 8 | 05/01/2025 04:30 AM |
| 39349 | 15.5 | 3.94 | -5 | 48 | 42 | 50 | 0.00 | -73 | 8 | 05/01/2025 04:15 AM |
| 39348 | -- | 3.99 | -5 | 48 | 42 | 50 | 0.10 | -72 | 7 | 05/01/2025 04:00 AM |
| 39347 | -- | 3.94 | -5 | 48 | 42 | 49 | 0.00 | -73 | 8 | 05/01/2025 03:45 AM |
| 39346 | -- | 4.00 | -5 | 49 | 42 | 50 | 0.10 | -72 | 7 | 05/01/2025 03:30 AM |
| 39345 | -- | 3.94 | -5 | 49 | 43 | 50 | 0.00 | -73 | 8 | 05/01/2025 03:15 AM |